Location: Six Mile Lake
(44.9000°N, 79.7170°W)
Time: 16:00:07
(UTC-04:00)

NOAA 18 - Pass Details

Date: 08 July 2022
Orbit: 839 x 860 km, 98.9° (Epoch: 11 August)

Event Time Altitude Azimuth Distance (km) Brightness Sun altitude
Exits shadow 00:13:30 12° 226° (SW) 2,360 7.3 -20.7°
Maximum altitude 00:17:00 20° 269° (W) 1,879 7.1 -20.9°
Drops below altitude 10° 00:21:00 10° 315° (NW) 2,502 8.5 -21.1°
Sets 00:24:04 0° 332° (NNW) 3,446 9.8 -21.3°
